PDT,Max TemperatureF,Mean TemperatureF,Min TemperatureF,Max Dew PointF,MeanDew PointF,Min DewpointF,Max Humidity, Mean Humidity, Min Humidity, Max Sea Level PressureIn, Mean Sea Level PressureIn, Min Sea Level PressureIn, Max VisibilityMiles, Mean VisibilityMiles, Min VisibilityMiles, Max Wind SpeedMPH, Mean Wind SpeedMPH, Max Gust SpeedMPH,PrecipitationIn, CloudCover, Events, WindDirDegrees
2011-6-1,62,52,41,50,46,40,96,76,55,30.12,30.07,30.03,10,9,2,22,8,29,0.04,6,Rain,255
2011-6-2,63,55,47,51,48,45,93,79,64,30.17,30.13,30.04,10,10,10,17,7,20,0.00,6,,254
2011-6-3,61,52,42,52,46,41,100,78,55,30.03,29.92,29.75,10,8,0,8,2,10,T,3,Fog-Rain,251
2011-6-4,63,58,53,57,54,48,100,89,77,29.96,29.85,29.71,10,6,2,28,10,39,1.04,7,Rain,103
2011-6-5,66,60,53,57,54,49,100,84,67,30.01,29.97,29.91,10,7,2,18,6,22,0.21,7,Rain,267
2011-6-6,61,55,48,53,52,50,96,84,72,30.09,30.01,29.91,10,9,6,16,9,22,0.00,7,,255
2011-6-7,71,59,47,57,52,47,100,82,63,30.04,29.99,29.92,9,5,0,20,7,28,0.00,3,Fog,222
2011-6-8,67,60,52,55,52,50,96,80,63,29.99,29.95,29.92,10,5,2,17,11,22,0.00,4,,213
2011-6-9,71,63,54,58,53,51,93,77,61,30.04,29.98,29.94,10,4,2,23,9,76,0.00,4,,209
2011-6-10,74,63,51,55,52,49,96,75,53,29.97,29.92,29.86,10,4,2,20,11,23,0.00,3,,228
2011-6-11,72,60,47,52,49,46,93,71,49,29.90,29.85,29.82,10,6,2,23,11,30,0.00,1,,243
2011-6-12,72,60,48,57,51,46,96,78,59,29.91,29.86,29.82,10,5,2,18,8,23,0.00,2,,244
2011-6-13,75,63,51,60,55,48,93,77,60,29.99,29.94,29.91,10,6,2,16,9,21,0.00,1,,220
2011-6-14,82,68,54,61,56,52,93,72,51,30.04,29.96,29.88,10,8,2,15,6,17,0.00,2,,206
2011-6-15,84,69,53,59,56,51,93,68,42,29.88,29.81,29.72,10,9,6,16,6,28,0.00,0,,188
2011-6-16,73,61,49,53,51,47,86,68,49,29.75,29.73,29.71,10,10,8,18,9,22,0.00,0,,208
2011-6-17,67,60,53,54,51,49,93,78,63,29.85,29.79,29.74,10,9,6,22,14,26,0.00,1,,204
2011-6-18,70,61,51,56,52,48,93,78,63,29.90,29.85,29.79,10,10,6,22,10,24,0.00,3,,209
2011-6-19,86,71,56,57,55,52,93,65,37,29.86,29.78,29.72,10,10,10,14,7,16,0.00,2,,215
2011-6-20,94,74,54,59,55,52,93,60,26,29.78,29.74,29.71,10,7,0,15,5,20,0.00,0,,238
2011-6-21,93,74,54,64,58,52,90,62,34,29.79,29.75,29.72,10,10,6,15,6,,0.00,0,,188
2011-6-22,75,64,53,59,56,53,93,74,54,29.83,29.80,29.77,10,10,9,22,10,25,0.00,1,,204
2011-6-23,73,64,55,54,53,51,93,71,49,29.90,29.85,29.81,10,10,8,20,14,24,0.00,3,,214
2011-6-24,73,63,53,54,52,50,93,73,53,29.90,29.85,29.81,10,10,8,20,12,25,0.00,2,,221
2011-6-25,69,61,53,54,52,50,93,76,59,29.88,29.84,29.81,10,9,7,21,13,26,0.00,4,,210
2011-6-26,75,64,52,56,52,49,93,73,53,29.92,29.85,29.80,10,10,8,16,9,18,0.00,3,,212
2011-6-27,72,63,54,56,53,51,93,71,49,29.86,29.81,29.76,10,10,9,29,15,35,0.00,3,,220
2011-6-28,60,57,53,58,55,51,93,90,86,29.84,29.81,29.78,10,7,2,16,9,20,0.93,7,Rain,236
2011-6-29,70,62,53,56,53,51,93,77,61,29.97,29.90,29.81,10,10,10,15,9,18,0.00,5,,242
2011-6-30,77,63,48,58,53,48,100,77,53,30.02,29.97,29.90,10,8,0,15,5,18,0.00,1,Fog,201